QPF
0.02 0.03 0.04 0.03 0.03 0.03 0.03 0.04 0.04 0.05 0.05 0.06 0.07 0.07 0.07 0.07 0.07 0.07 0.09 0.10 0.07 0.06 0.08 0.06 0.08 0.07 0.06 0.06 0.07 0.07 0.08 0.06 0.06 0.07 0.07 0.05 0.06 0.05 0.04 0.04 0.04 0.04 0.04
0.02 0.03 0.03 0.03 0.03 0.03 0.03 0.04 0.04 0.05 0.05 0.07 0.09 0.08 0.07 0.06 0.07 0.07 0.07 0.07 0.06 0.06 0.06 0.07 0.07 0.06 0.07 0.08 0.08 0.06 0.06 0.06 0.07 0.09 0.08 0.08 0.09 0.06 0.04 0.03 0.03 0.03 0.03
0.02 0.03 0.02 0.02 0.02 0.02 0.02 0.03 0.05 0.05 0.06 0.07 0.07 0.05 0.05 0.05 0.06 0.08 0.07 0.05 0.05 0.05 0.05 0.07 0.08 0.06 0.06 0.08 0.08 0.07 0.06 0.06 0.07 0.07 0.08 0.09 0.10 0.07 0.06 0.04 0.03 0.03 0.02
0.01 0.02 0.03 0.03 0.02 0.02 0.02 0.02 0.04 0.05 0.05 0.05 0.05 0.05 0.05 0.06 0.06 0.08 0.08 0.06 0.05 0.04 0.05 0.06 0.07 0.06 0.07 0.07 0.06 0.07 0.05 0.06 0.06 0.06 0.06 0.06 0.07 0.07 0.07 0.05 0.05 0.04 0.02
0.02 0.01 0.02 0.03 0.04 0.04 0.03 0.02 0.04 0.05 0.05 0.05 0.07 0.05 0.05 0.06 0.06 0.06 0.06 0.06 0.04 0.04 0.04 0.04 0.05 0.05 0.05 0.05 0.05 0.06 0.05 0.06 0.05 0.06 0.07 0.07 0.06 0.07 0.08 0.08 0.06 0.05 0.03
0.02 0.02 0.02 0.02 0.03 0.03 0.03 0.04 0.04 0.05 0.04 0.04 0.05 0.05 0.05 0.06 0.06 0.06 0.06 0.05 0.05 0.05 0.05 0.05 0.05 0.04 0.05 0.06 0.05 0.06 0.06 0.07 0.06 0.05 0.06 0.06 0.06 0.08 0.09 0.08 0.07 0.05 0.05
0.02 0.02 0.01 0.01 0.01 0.02 0.04 0.04 0.04 0.04 0.03 0.03 0.04 0.04 0.05 0.06 0.06 0.07 0.07 0.06 0.04 0.04 0.05 0.07 0.05 0.04 0.05 0.05 0.05 0.06 0.06 0.05 0.05 0.04 0.05 0.05 0.06 0.07 0.08 0.07 0.05 0.04 0.04
0.01 0.01 0.01 0.00 0.01 0.02 0.02 0.04 0.04 0.05 0.04 0.04 0.05 0.04 0.04 0.06 0.06 0.08 0.08 0.06 0.05 0.04 0.04 0.05 0.04 0.02 0.03 0.03 0.04 0.04 0.04 0.05 0.04 0.04 0.06 0.06 0.04 0.04 0.06 0.06 0.05 0.05 0.04
0.02 0.01 0.01 0.01 0.01 0.02 0.02 0.04 0.05 0.06 0.06 0.05 0.05 0.05 0.04 0.05 0.05 0.06 0.06 0.04 0.04 0.04 0.04 0.04 0.04 0.03 0.04 0.04 0.05 0.05 0.04 0.05 0.04 0.05 0.05 0.05 0.05 0.04 0.04 0.05 0.07 0.07 0.07
0.02 0.01 0.01 0.01 0.01 0.01 0.02 0.04 0.07 0.08 0.07 0.06 0.04 0.03 0.03 0.03 0.05 0.04 0.04 0.04 0.04 0.05 0.05 0.03 0.04 0.03 0.04 0.04 0.04 0.04 0.04 0.04 0.05 0.06 0.05 0.04 0.04 0.06 0.06 0.05 0.06 0.08 0.08
0.02 0.02 0.01 0.02 0.02 0.02 0.02 0.02 0.04 0.10 0.12 0.09 0.05 0.03 0.03 0.03 0.04 0.04 0.03 0.04 0.05 0.04 0.04 0.03 0.03 0.02 0.02 0.02 0.03 0.02 0.03 0.04 0.04 0.03 0.02 0.02 0.04 0.05 0.06 0.05 0.07 0.07 0.07
0.02 0.01 0.01 0.01 0.02 0.03 0.03 0.02 0.03 0.06 0.13 0.13 0.07 0.04 0.04 0.04 0.04 0.04 0.03 0.04 0.04 0.03 0.02 0.02 0.02 0.02 0.02 0.02 0.02 0.02 0.02 0.02 0.03 0.02 0.02 0.02 0.02 0.04 0.04 0.05 0.06 0.07 0.07
0.02 0.01 0.01 0.02 0.02 0.02 0.02 0.02 0.03 0.05 0.07 0.11 0.10 0.06 0.05 0.05 0.04 0.04 0.04 0.03 0.03 0.02 0.02 0.02 0.02 0.02 0.02 0.02 0.02 0.01 0.01 0.01 0.01 0.01 0.01 0.01 0.02 0.03 0.04 0.04 0.05 0.05 0.05
0.04 0.02 0.02 0.03 0.04 0.03 0.03 0.03 0.02 0.03 0.04 0.07 0.08 0.08 0.07 0.05 0.04 0.04 0.04 0.03 0.03 0.03 0.02 0.03 0.02 0.02 0.02 0.02 0.01 0.01 0.02 0.02 0.02 0.01 0.01 0.01 0.01 0.02 0.03 0.03 0.04 0.04 0.06
0.03 0.03 0.02 0.02 0.03 0.04 0.05 0.05 0.04 0.03 0.04 0.06 0.06 0.05 0.07 0.06 0.06 0.05 0.04 0.04 0.03 0.03 0.03 0.03 0.03 0.03 0.02 0.02 0.02 0.02 0.02 0.02 0.02 0.01 0.01 0.01 0.00 0.01 0.01 0.01 0.03 0.03 0.05
0.03 0.03 0.02 0.02 0.02 0.03 0.04 0.05 0.04 0.04 0.04 0.05 0.06 0.07 0.08 0.09 0.09 0.09 0.08 0.05 0.04 0.04 0.03 0.03 0.03 0.03 0.01 0.02 0.01 0.01 0.01 0.02 0.01 0.01 0.01 0.01 0.00 0.00 0.00 0.00 0.01 0.01 0.02
0.02 0.02 0.02 0.02 0.02 0.03 0.03 0.04 0.04 0.04 0.05 0.06 0.07 0.08 0.10 0.12 0.12 0.09 0.08 0.06 0.06 0.05 0.05 0.05 0.05 0.03 0.03 0.03 0.02 0.01 0.03 0.03 0.03 0.02 0.02 0.01 0.00 0.00 0.01 0.01 0.01 0.01 0.01
0.04 0.04 0.02 0.02 0.03 0.03 0.03 0.04 0.04 0.04 0.04 0.06 0.06 0.06 0.08 0.09 0.11 0.10 0.08 0.07 0.07 0.06 0.06 0.06 0.05 0.04 0.03 0.02 0.01 0.01 0.01 0.03 0.02 0.02 0.01 0.01 0.01 0.01 0.00 0.01 0.02 0.03 0.02
0.05 0.04 0.02 0.02 0.02 0.03 0.03 0.04 0.05 0.05 0.05 0.05 0.06 0.05 0.08 0.09 0.08 0.09 0.10 0.09 0.08 0.08 0.07 0.06 0.06 0.05 0.04 0.02 0.01 0.01 0.01 0.02 0.02 0.01 0.01 0.01 0.01 0.01 0.01 0.01 0.04 0.05 0.04
0.04 0.04 0.03 0.02 0.02 0.04 0.05 0.06 0.06 0.05 0.05 0.05 0.05 0.06 0.07 0.07 0.07 0.07 0.10 0.09 0.09 0.09 0.08 0.07 0.07 0.06 0.05 0.03 0.02 0.01 0.01 0.02 0.02 0.02 0.01 0.01 0.01 0.01 0.01 0.02 0.04 0.05 0.05
0.05 0.05 0.03 0.04 0.03 0.04 0.06 0.08 0.06 0.05 0.05 0.05 0.05 0.07 0.07 0.08 0.08 0.09 0.08 0.09 0.08 0.09 0.09 0.08 0.07 0.07 0.05 0.04 0.03 0.02 0.01 0.02 0.02 0.01 0.01 0.02 0.01 0.02 0.03 0.03 0.04 0.04 0.04
0.04 0.05 0.04 0.03 0.03 0.03 0.05 0.06 0.06 0.06 0.06 0.05 0.06 0.07 0.08 0.09 0.08 0.10 0.09 0.10 0.10 0.08 0.08 0.09 0.09 0.09 0.08 0.05 0.04 0.03 0.02 0.01 0.02 0.02 0.03 0.05 0.05 0.05 0.04 0.03 0.02 0.01 0.02
0.04 0.05 0.06 0.04 0.03 0.03 0.04 0.04 0.05 0.06 0.05 0.05 0.06 0.07 0.07 0.08 0.08 0.10 0.10 0.09 0.08 0.08 0.06 0.06 0.05 0.05 0.06 0.06 0.07 0.06 0.05 0.04 0.03 0.03 0.03 0.04 0.05 0.05 0.03 0.02 0.01 0.01 0.02
0.03 0.05 0.06 0.07 0.05 0.04 0.04 0.04 0.05 0.05 0.05 0.04 0.05 0.06 0.07 0.05 0.06 0.08 0.08 0.08 0.07 0.07 0.06 0.04 0.05 0.05 0.04 0.04 0.05 0.06 0.05 0.06 0.06 0.05 0.05 0.04 0.05 0.06 0.05 0.04 0.02 0.02 0.03
0.03 0.04 0.05 0.07 0.07 0.05 0.05 0.06 0.06 0.07 0.06 0.06 0.05 0.06 0.06 0.06 0.07 0.07 0.07 0.07 0.06 0.06 0.06 0.05 0.04 0.04 0.04 0.04 0.05 0.05 0.05 0.05 0.05 0.05 0.05 0.05 0.05 0.06 0.07 0.08 0.06 0.05 0.05
0.03 0.03 0.05 0.05 0.05 0.05 0.04 0.05 0.07 0.07 0.07 0.07 0.06 0.06 0.05 0.05 0.06 0.06 0.06 0.07 0.07 0.07 0.06 0.06 0.06 0.05 0.06 0.06 0.05 0.04 0.04 0.04 0.04 0.05 0.06 0.06 0.06 0.06 0.06 0.09 0.11 0.09 0.07
MSLP
1003.64 1004.56 1005.50 1006.34 1007.03 1007.55 1007.94 1008.28 1008.65 1009.12 1009.72 1010.43 1011.18 1011.90 1012.49 1012.89 1013.04 1012.98 1012.75 1012.44 1012.15 1011.95 1011.91 1012.04 1012.32 1012.68 1013.07 1013.42 1013.69 1013.84 1013.87 1013.80 1013.67 1013.49 1013.29 1013.07 1012.84 1012.58 1012.30 1012.00 1011.71 1011.43 1011.21
1003.29 1004.42 1005.55 1006.57 1007.40 1008.02 1008.48 1008.84 1009.19 1009.62 1010.15 1010.78 1011.47 1012.12 1012.66 1013.01 1013.14 1013.07 1012.84 1012.53 1012.24 1012.04 1011.99 1012.10 1012.34 1012.68 1013.03 1013.36 1013.61 1013.77 1013.82 1013.79 1013.71 1013.59 1013.44 1013.27 1013.08 1012.84 1012.56 1012.24 1011.89 1011.55 1011.24
1002.81 1004.13 1005.46 1006.66 1007.65 1008.39 1008.92 1009.31 1009.64 1010.01 1010.45 1010.98 1011.55 1012.11 1012.57 1012.88 1013.00 1012.93 1012.73 1012.47 1012.22 1012.05 1012.01 1012.11 1012.33 1012.63 1012.95 1013.24 1013.47 1013.61 1013.68 1013.69 1013.67 1013.61 1013.54 1013.45 1013.32 1013.13 1012.88 1012.56 1012.19 1011.79 1011.41
1002.27 1003.73 1005.21 1006.57 1007.70 1008.56 1009.18 1009.60 1009.93 1010.24 1010.60 1011.02 1011.48 1011.93 1012.32 1012.58 1012.69 1012.65 1012.51 1012.31 1012.12 1012.00 1011.99 1012.10 1012.30 1012.56 1012.84 1013.09 1013.28 1013.41 1013.49 1013.53 1013.55 1013.56 1013.57 1013.56 1013.51 1013.39 1013.18 1012.89 1012.51 1012.08 1011.64
1001.77 1003.27 1004.83 1006.28 1007.52 1008.49 1009.18 1009.66 1010.00 1010.29 1010.59 1010.93 1011.30 1011.67 1011.99 1012.22 1012.33 1012.33 1012.24 1012.12 1012.01 1011.95 1011.98 1012.10 1012.29 1012.51 1012.74 1012.94 1013.09 1013.19 1013.26 1013.31 1013.37 1013.44 1013.52 1013.58 1013.60 1013.55 1013.40 1013.13 1012.77 1012.33 1011.84
1001.39 1002.82 1004.34 1005.81 1007.09 1008.12 1008.89 1009.44 1009.83 1010.13 1010.42 1010.72 1011.04 1011.36 1011.65 1011.86 1011.99 1012.03 1012.01 1011.95 1011.91 1011.92 1011.98 1012.11 1012.29 1012.48 1012.66 1012.80 1012.91 1012.97 1013.02 1013.07 1013.15 1013.25 1013.37 1013.48 1013.56 1013.56 1013.46 1013.24 1012.90 1012.46 1011.96
1001.16 1002.40 1003.79 1005.17 1006.42 1007.47 1008.29 1008.91 1009.37 1009.74 1010.07 1010.39 1010.72 1011.03 1011.31 1011.54 1011.69 1011.77 1011.80 1011.81 1011.83 1011.88 1011.98 1012.12 1012.29 1012.45 1012.59 1012.69 1012.75 1012.77 1012.79 1012.82 1012.89 1012.99 1013.13 1013.27 1013.37 1013.41 1013.35 1013.16 1012.85 1012.44 1011.95
1001.08 1002.05 1003.20 1004.41 1005.55 1006.56 1007.41 1008.09 1008.64 1009.10 1009.52 1009.92 1010.30 1010.65 1010.97 1011.22 1011.41 1011.53 1011.60 1011.66 1011.72 1011.81 1011.94 1012.09 1012.24 1012.39 1012.50 1012.57 1012.59 1012.58 1012.57 1012.57 1012.61 1012.70 1012.82 1012.95 1013.06 1013.11 1013.07 1012.91 1012.63 1012.25 1011.79
1001.14 1001.77 1002.62 1003.58 1004.56 1005.49 1006.32 1007.05 1007.69 1008.26 1008.80 1009.30 1009.77 1010.20 1010.57 1010.87 1011.09 1011.24 1011.36 1011.45 1011.54 1011.66 1011.80 1011.96 1012.12 1012.26 1012.37 1012.42 1012.42 1012.40 1012.36 1012.33 1012.34 1012.39 1012.47 1012.57 1012.66 1012.70 1012.66 1012.51 1012.27 1011.92 1011.51
1001.32 1001.60 1002.12 1002.81 1003.58 1004.37 1005.15 1005.90 1006.61 1007.29 1007.94 1008.56 1009.13 1009.65 1010.08 1010.43 1010.69 1010.88 1011.02 1011.14 1011.26 1011.39 1011.56 1011.73 1011.91 1012.07 1012.18 1012.24 1012.25 1012.22 1012.16 1012.11 1012.09 1012.09 1012.12 1012.18 1012.22 1012.23 1012.18 1012.04 1011.82 1011.53 1011.17
1001.61 1001.58 1001.80 1002.21 1002.76 1003.39 1004.09 1004.81 1005.56 1006.31 1007.05 1007.76 1008.42 1009.01 1009.51 1009.91 1010.20 1010.42 1010.59 1010.73 1010.87 1011.03 1011.22 1011.42 1011.63 1011.81 1011.95 1012.04 1012.07 1012.04 1011.99 1011.92 1011.86 1011.83 1011.81 1011.81 1011.80 1011.78 1011.70 1011.57 1011.37 1011.12 1010.82
1002.03 1001.77 1001.74 1001.91 1002.24 1002.72 1003.29 1003.96 1004.69 1005.46 1006.24 1007.00 1007.71 1008.35 1008.89 1009.33 1009.66 1009.91 1010.10 1010.27 1010.45 1010.64 1010.85 1011.09 1011.33 1011.55 1011.73 1011.85 1011.90 1011.90 1011.85 1011.77 1011.69 1011.61 1011.55 1011.50 1011.44 1011.38 1011.28 1011.15 1010.97 1010.76 1010.52
1002.62 1002.23 1002.03 1002.01 1002.16 1002.47 1002.92 1003.49 1004.15 1004.87 1005.63 1006.38 1007.10 1007.75 1008.30 1008.76 1009.12 1009.40 1009.63 1009.84 1010.05 1010.28 1010.54 1010.82 1011.09 1011.34 1011.55 1011.70 1011.78 1011.79 1011.74 1011.66 1011.55 1011.45 1011.34 1011.25 1011.16 1011.06 1010.95 1010.81 1010.66 1010.48 1010.30
1003.41 1002.97 1002.68 1002.55 1002.57 1002.73 1003.04 1003.47 1004.01 1004.63 1005.30 1005.99 1006.65 1007.27 1007.81 1008.27 1008.65 1008.96 1009.24 1009.50 1009.76 1010.04 1010.34 1010.65 1010.96 1011.23 1011.46 1011.62 1011.70 1011.72 1011.67 1011.57 1011.45 1011.32 1011.19 1011.06 1010.95 1010.83 1010.71 1010.59 1010.45 1010.31 1010.18
1004.37 1003.97 1003.67 1003.48 1003.40 1003.44 1003.61 1003.88 1004.27 1004.73 1005.27 1005.83 1006.39 1006.94 1007.44 1007.89 1008.28 1008.64 1008.96 1009.28 1009.60 1009.93 1010.27 1010.61 1010.94 1011.22 1011.44 1011.60 1011.67 1011.68 1011.61 1011.50 1011.37 1011.22 1011.07 1010.93 1010.81 1010.69 1010.58 1010.47 1010.37 1010.27 1010.18
1005.44 1005.14 1004.88 1004.68 1004.54 1004.48 1004.50 1004.62 1004.82 1005.10 1005.46 1005.86 1006.30 1006.74 1007.18 1007.61 1008.01 1008.41 1008.79 1009.17 1009.55 1009.93 1010.31 1010.67 1011.00 1011.28 1011.48 1011.61 1011.67 1011.65 1011.57 1011.44 1011.29 1011.14 1010.99 1010.85 1010.74 1010.64 1010.55 1010.47 1010.40 1010.34 1010.30
1006.52 1006.33 1006.14 1005.96 1005.79 1005.64 1005.54 1005.49 1005.51 1005.60 1005.76 1005.99 1006.28 1006.61 1006.98 1007.38 1007.79 1008.22 1008.65 1009.09 1009.53 1009.96 1010.37 1010.75 1011.07 1011.33 1011.52 1011.62 1011.65 1011.60 1011.51 1011.37 1011.23 1011.08 1010.94 1010.83 1010.74 1010.66 1010.61 1010.57 1010.55 1010.53 1010.54
1007.48 1007.39 1007.27 1007.11 1006.92 1006.70 1006.49 1006.29 1006.14 1006.05 1006.04 1006.10 1006.25 1006.47 1006.77 1007.13 1007.54 1007.99 1008.47 1008.95 1009.44 1009.91 1010.35 1010.73 1011.05 1011.30 1011.47 1011.56 1011.57 1011.52 1011.43 1011.31 1011.18 1011.06 1010.95 1010.87 1010.81 1010.78 1010.77 1010.77 1010.79 1010.83 1010.87
1008.20 1008.18 1008.11 1007.97 1007.76 1007.49 1007.19 1006.88 1006.59 1006.35 1006.19 1006.11 1006.13 1006.26 1006.49 1006.81 1007.21 1007.67 1008.17 1008.68 1009.20 1009.70 1010.15 1010.55 1010.88 1011.13 1011.30 1011.40 1011.43 1011.40 1011.34 1011.25 1011.16 1011.08 1011.02 1010.98 1010.97 1010.98 1011.01 1011.05 1011.11 1011.18 1011.26
1008.63 1008.65 1008.59 1008.45 1008.23 1007.93 1007.57 1007.18 1006.80 1006.46 1006.18 1006.00 1005.93 1005.98 1006.15 1006.42 1006.79 1007.24 1007.73 1008.25 1008.78 1009.29 1009.76 1010.17 1010.51 1010.79 1010.99 1011.13 1011.21 1011.24 1011.24 1011.22 1011.19 1011.17 1011.16 1011.17 1011.19 1011.24 1011.29 1011.37 1011.45 1011.54 1011.65
1008.77 1008.79 1008.73 1008.59 1008.36 1008.04 1007.66 1007.24 1006.81 1006.42 1006.08 1005.83 1005.70 1005.68 1005.79 1006.01 1006.33 1006.74 1007.21 1007.71 1008.22 1008.72 1009.19 1009.62 1010.00 1010.31 1010.57 1010.78 1010.94 1011.06 1011.14 1011.21 1011.26 1011.30 1011.34 1011.39 1011.44 1011.50 1011.57 1011.65 1011.74 1011.84 1011.94
1008.72 1008.71 1008.63 1008.48 1008.26 1007.95 1007.58 1007.17 1006.74 1006.34 1005.98 1005.71 1005.53 1005.46 1005.50 1005.67 1005.93 1006.27 1006.68 1007.14 1007.61 1008.09 1008.56 1009.00 1009.41 1009.78 1010.11 1010.41 1010.66 1010.88 1011.06 1011.22 1011.34 1011.44 1011.53 1011.60 1011.65 1011.71 1011.77 1011.83 1011.90 1011.98 1012.07
1008.56 1008.52 1008.44 1008.29 1008.09 1007.81 1007.48 1007.12 1006.73 1006.35 1006.01 1005.72 1005.52 1005.40 1005.39 1005.48 1005.66 1005.92 1006.26 1006.64 1007.06 1007.50 1007.95 1008.40 1008.84 1009.27 1009.67 1010.05 1010.40 1010.71 1010.99 1011.21 1011.40 1011.54 1011.64 1011.71 1011.75 1011.78 1011.80 1011.83 1011.86 1011.91 1011.98
1008.42 1008.36 1008.28 1008.16 1008.00 1007.78 1007.52 1007.21 1006.88 1006.55 1006.22 1005.94 1005.71 1005.55 1005.48 1005.48 1005.58 1005.75 1006.00 1006.30 1006.66 1007.05 1007.48 1007.93 1008.39 1008.86 1009.32 1009.76 1010.17 1010.55 1010.88 1011.16 1011.37 1011.53 1011.62 1011.67 1011.68 1011.66 1011.63 1011.61 1011.60 1011.61 1011.64
1008.37 1008.32 1008.27 1008.19 1008.08 1007.93 1007.74 1007.50 1007.23 1006.93 1006.63 1006.34 1006.08 1005.87 1005.72 1005.65 1005.66 1005.74 1005.90 1006.14 1006.43 1006.79 1007.19 1007.63 1008.09 1008.57 1009.06 1009.53 1009.97 1010.37 1010.72 1011.00 1011.21 1011.35 1011.41 1011.42 1011.39 1011.32 1011.24 1011.17 1011.12 1011.10 1011.11
1008.44 1008.42 1008.41 1008.39 1008.35 1008.27 1008.14 1007.95 1007.71 1007.43 1007.12 1006.80 1006.49 1006.22 1006.00 1005.85 1005.78 1005.80 1005.90 1006.08 1006.33 1006.66 1007.04 1007.46 1007.92 1008.39 1008.87 1009.33 1009.75 1010.13 1010.45 1010.70 1010.87 1010.97 1011.00 1010.97 1010.89 1010.79 1010.68 1010.59 1010.51 1010.47 1010.47
Thickness
5796 5792 5787 5782 5777 5772 5768 5764 5761 5759 5757 5754 5750 5747 5746 5746 5746 5745 5743 5741 5740 5740 5738 5738 5737 5736 5735 5734 5733 5732 5730 5729 5730 5726 5723 5725 5729 5728 5727 5726 5725 5724 5723
5789 5786 5782 5778 5773 5768 5764 5761 5758 5756 5754 5751 5749 5747 5746 5745 5744 5744 5741 5740 5738 5738 5737 5735 5735 5734 5733 5732 5731 5729 5726 5726 5727 5722 5717 5713 5715 5721 5725 5724 5722 5722 5721
5784 5780 5777 5774 5771 5766 5762 5761 5756 5754 5752 5750 5747 5746 5743 5742 5740 5738 5737 5738 5737 5736 5735 5734 5733 5733 5731 5729 5728 5728 5724 5721 5723 5723 5717 5710 5708 5711 5717 5720 5719 5719 5717
5784 5779 5775 5771 5768 5765 5763 5759 5755 5751 5749 5747 5743 5740 5737 5735 5736 5735 5735 5735 5735 5735 5734 5733 5732 5730 5730 5728 5727 5728 5725 5722 5719 5720 5721 5719 5716 5708 5705 5711 5714 5715 5714
5783 5778 5774 5770 5768 5765 5762 5758 5753 5749 5746 5744 5742 5739 5737 5736 5736 5734 5733 5732 5733 5733 5732 5731 5730 5728 5727 5727 5726 5725 5724 5723 5720 5718 5718 5717 5716 5715 5706 5701 5705 5708 5711
5781 5777 5776 5771 5767 5764 5760 5756 5751 5747 5745 5742 5740 5737 5735 5734 5732 5731 5729 5729 5730 5730 5730 5729 5728 5727 5726 5725 5724 5723 5722 5721 5720 5718 5718 5715 5713 5710 5708 5702 5701 5702 5706
5777 5774 5771 5768 5764 5761 5757 5753 5748 5744 5743 5741 5738 5737 5735 5733 5731 5729 5728 5727 5727 5727 5727 5728 5726 5725 5725 5723 5722 5721 5720 5719 5717 5716 5716 5716 5715 5714 5710 5705 5701 5699 5702
5776 5772 5771 5768 5763 5760 5756 5752 5746 5743 5742 5740 5737 5736 5735 5733 5731 5730 5729 5728 5727 5728 5728 5726 5725 5724 5723 5722 5721 5719 5718 5717 5716 5715 5714 5713 5714 5713 5710 5706 5700 5695 5696
5772 5771 5769 5767 5763 5759 5754 5750 5745 5742 5740 5739 5737 5735 5734 5732 5731 5730 5728 5728 5728 5728 5727 5725 5724 5723 5721 5720 5719 5717 5716 5715 5714 5713 5712 5711 5712 5711 5710 5708 5703 5695 5690
5770 5769 5766 5764 5761 5757 5752 5748 5744 5740 5739 5737 5735 5734 5732 5731 5730 5729 5727 5726 5726 5727 5725 5723 5721 5720 5719 5718 5717 5715 5714 5712 5711 5710 5709 5709 5709 5709 5707 5705 5703 5701 5695
5765 5763 5762 5760 5757 5753 5749 5745 5741 5738 5735 5734 5733 5732 5730 5730 5729 5727 5726 5725 5724 5723 5722 5721 5719 5718 5717 5716 5714 5713 5712 5710 5708 5708 5707 5706 5706 5704 5704 5703 5701 5698 5695
5760 5759 5757 5755 5751 5747 5744 5741 5737 5734 5732 5731 5730 5729 5728 5727 5725 5725 5725 5724 5722 5721 5720 5719 5717 5716 5715 5714 5712 5711 5710 5708 5706 5706 5705 5704 5704 5702 5701 5699 5697 5696 5695
5752 5752 5749 5746 5744 5741 5739 5736 5734 5730 5729 5728 5726 5724 5724 5723 5722 5722 5722 5721 5719 5718 5718 5717 5715 5714 5713 5712 5711 5710 5708 5707 5706 5705 5703 5702 5701 5698 5697 5696 5694 5694 5694
5743 5743 5740 5738 5736 5734 5732 5731 5729 5728 5727 5724 5722 5719 5719 5719 5719 5719 5719 5718 5716 5715 5714 5714 5713 5712 5711 5710 5709 5708 5706 5705 5704 5704 5702 5701 5700 5697 5695 5693 5692 5691 5688
5731 5731 5731 5729 5728 5726 5725 5724 5723 5723 5722 5720 5717 5716 5716 5716 5715 5715 5715 5714 5713 5713 5712 5711 5710 5710 5709 5708 5707 5705 5704 5702 5701 5701 5700 5700 5698 5696 5694 5692 5689 5687 5685
5722 5723 5723 5721 5719 5719 5718 5717 5717 5717 5717 5714 5713 5713 5712 5712 5711 5710 5710 5709 5709 5709 5708 5707 5707 5706 5706 5705 5703 5701 5701 5700 5698 5697 5697 5697 5696 5694 5692 5690 5687 5685 5682
5712 5713 5714 5713 5712 5713 5713 5712 5712 5713 5711 5710 5710 5709 5708 5707 5706 5707 5705 5704 5704 5704 5703 5703 5703 5701 5701 5700 5699 5697 5697 5697 5696 5695 5694 5694 5695 5692 5690 5687 5684 5682 5680
5704 5704 5706 5706 5707 5707 5708 5708 5708 5707 5706 5705 5705 5706 5705 5703 5703 5702 5701 5700 5699 5699 5698 5698 5698 5697 5696 5695 5694 5694 5694 5694 5693 5693 5692 5690 5690 5689 5687 5685 5682 5681 5680
5698 5698 5698 5699 5700 5701 5701 5701 5701 5701 5700 5699 5700 5701 5701 5699 5698 5697 5696 5695 5694 5694 5693 5693 5693 5693 5692 5690 5690 5689 5690 5690 5690 5690 5690 5689 5687 5685 5683 5682 5679 5678 5677
5692 5691 5692 5693 5692 5693 5694 5694 5693 5693 5693 5694 5694 5696 5696 5695 5694 5693 5692 5692 5690 5689 5689 5689 5689 5689 5688 5686 5685 5684 5686 5686 5686 5686 5687 5685 5684 5682 5680 5678 5676 5674 5674
5684 5684 5684 5683 5684 5686 5686 5685 5686 5686 5687 5689 5689 5690 5691 5690 5690 5689 5688 5687 5686 5684 5684 5684 5685 5685 5684 5682 5680 5679 5681 5681 5681 5682 5682 5682 5680 5678 5675 5674 5673 5671 5669
5675 5675 5675 5675 5677 5678 5678 5677 5677 5679 5681 5682 5682 5683 5684 5685 5686 5684 5682 5681 5680 5678 5678 5678 5679 5680 5680 5679 5677 5676 5675 5675 5676 5677 5678 5677 5674 5672 5670 5669 5669 5668 5665
5665 5666 5667 5667 5668 5670 5670 5669 5670 5673 5674 5674 5675 5676 5677 5678 5679 5677 5675 5675 5674 5674 5674 5674 5674 5676 5677 5676 5674 5671 5670 5669 5669 5671 5671 5670 5668 5666 5666 5665 5665 5663 5662
5657 5658 5658 5658 5659 5661 5663 5663 5665 5666 5666 5666 5668 5669 5670 5670 5671 5670 5671 5671 5671 5670 5670 5671 5671 5672 5673 5673 5670 5668 5665 5663 5663 5663 5663 5663 5662 5662 5662 5661 5660 5660 5660
5648 5649 5649 5649 5651 5654 5655 5657 5658 5658 5658 5658 5660 5662 5663 5664 5663 5663 5664 5666 5667 5668 5667 5669 5669 5668 5667 5666 5665 5663 5662 5661 5659 5658 5657 5658 5658 5658 5659 5659 5659 5659 5658
5639 5641 5641 5642 5644 5646 5648 5650 5651 5651 5650 5650 5652 5655 5656 5657 5657 5657 5658 5659 5661 5662 5662 5662 5662 5662 5661 5659 5657 5656 5655 5654 5653 5652 5652 5653 5654 5654 5654 5654 5654 5655 5656